Terminal Aerodrome Forecast
Issued by NWS Cleveland, OH

Home | Current Version | Previous Version | Graphics & Text | Print | Product List | Glossary On
Versions: 1 2 3 4 5 6 7 8 9 10 11 12 13 14 15 16 17 18 19 20 21 22 23 24 25 26 27 28 29 30
000
FTUS41 KCLE 140300 AAA
TAFCLE
TAF AMD
KCLE 140310Z 1403/1506 36004KT P6SM BKN035
     FM140800 09004KT P6SM BKN035
     FM141600 03005KT P6SM SCT035=

USA.gov is the U.S. government's official web portal to all federal, state and local government web resources and services.